sat.trackr.live / text

‹ back to catalog

STARLINK-2462

NORAD 48121 · 2021-027AF

PAYLOAD ACTIVE UNKNOWN

§ Identity

Operator
Country
US
Launch date
2021-04-07
Launch site
AFETR
Launch vehicle
Mass (kg)
RCS (m²)

Purposes: comms

External: N2YO · Heavens-Above · Gunter

§ Orbital elements

Epoch: 2026-05-25T01:40:37.732224Z

Period
94.01 min
Inclination
53.1588°
Eccentricity
0.0001208
Mean motion
15.31697996 rev/d
Perigee alt
469.9 km
Apogee alt
471.6 km
Semi-major
6,848.9 km
B*
3.9342e-6
RAAN
159.6959°
Arg perigee
86.5106°
Mean anomaly
273.6033°
Rev number
28,435

§ Raw data

STARLINK-24621 48121U 21027AF  26145.06988116 -.00000243  00000+0  39342-5 0  99902 48121  53.1588 159.6959 0001208  86.5106 273.6033 15.31697996284351

JSON: /api/v1/satellites/48121 · /tle

For live sub-satellite position, see the globe view (requires WebGL).

§ Visibility from observer

Set your observer location to see the next 7 days of passes ≥ 10°. The values pass through the URL so the page stays shareable.

No JS? Fill the form by hand. The geolocation button needs JavaScript.